Location: Bessat
(45.8735°N, 1.9924°E)
Time: 09:12:33
(UTC+00:00)

SWARM A - Pass Details

Date: 11 May 2021
Orbit: 427 x 432 km, 87.4° (Epoch: 15 June)

Event Time Altitude Azimuth Distance (km) Brightness Sun altitude
Rises 20:46:10 0° 2° (N) 2,415 8.7 -13.9°
Reaches altitude 10° 20:48:15 10° 7° (N) 1,541 7.6 -14.2°
Maximum altitude 20:51:32 55° 86° (E) 526 4.4 -14.5°
Enters shadow 20:52:51 31° 150° (SSE) 786 5.0 -14.7°
